TimeCDT,TemperatureF,Dew PointF,Humidity,Sea Level PressureIn,VisibilityMPH,Wind Direction,Wind SpeedMPH,Gust SpeedMPH,PrecipitationIn,Events,Conditions,WindDirDegrees,DateUTC
12:15 AM,28.4,19.4,69,29.88,10.0,Calm,Calm,-,N/A,,Overcast,0,2013-03-12 05:15:00
12:35 AM,30.2,19.4,64,29.88,10.0,West,13.8,-,N/A,,Overcast,270,2013-03-12 05:35:00
12:55 AM,30.2,19.4,64,29.88,10.0,West,15.0,-,N/A,,Overcast,280,2013-03-12 05:55:00
1:15 AM,32.0,21.2,64,29.88,10.0,WNW,16.1,-,N/A,,Overcast,290,2013-03-12 06:15:00
1:35 AM,32.0,21.2,64,29.88,10.0,WNW,13.8,19.6,N/A,,Overcast,290,2013-03-12 06:35:00
1:54 AM,32.0,21.2,64,29.89,10.0,West,13.8,-,N/A,,Overcast,280,2013-03-12 06:54:00
2:15 AM,32.0,21.2,64,29.89,10.0,West,11.5,-,N/A,,Overcast,280,2013-03-12 07:15:00
2:35 AM,32.0,23.0,69,29.89,10.0,West,10.4,-,N/A,,Overcast,270,2013-03-12 07:35:00
2:55 AM,32.0,23.0,69,29.89,10.0,West,12.7,-,N/A,,Overcast,270,2013-03-12 07:55:00
3:15 AM,33.8,21.2,60,29.87,10.0,WNW,9.2,-,N/A,,Mostly Cloudy,290,2013-03-12 08:15:00
3:35 AM,32.0,21.2,64,29.87,10.0,West,11.5,-,N/A,,Scattered Clouds,260,2013-03-12 08:35:00
3:55 AM,30.2,21.2,69,29.87,10.0,WSW,9.2,-,N/A,,Scattered Clouds,250,2013-03-12 08:55:00
4:15 AM,32.0,23.0,69,29.87,10.0,WSW,13.8,-,N/A,,Overcast,250,2013-03-12 09:15:00
4:35 AM,32.0,23.0,69,29.87,10.0,WSW,18.4,24.2,N/A,,Overcast,250,2013-03-12 09:35:00
4:55 AM,32.0,21.2,64,29.87,10.0,West,18.4,-,N/A,,Overcast,260,2013-03-12 09:55:00
5:15 AM,32.0,23.0,69,29.87,10.0,West,16.1,-,N/A,,Overcast,270,2013-03-12 10:15:00
5:35 AM,32.0,23.0,69,29.88,10.0,West,18.4,-,N/A,,Overcast,270,2013-03-12 10:35:00
5:54 AM,32.0,23.0,69,29.88,10.0,West,18.4,23.0,N/A,,Overcast,270,2013-03-12 10:54:00
6:15 AM,32.0,23.0,69,29.89,10.0,West,17.3,-,N/A,Snow,Light Snow,280,2013-03-12 11:15:00
6:35 AM,32.0,23.0,69,29.89,10.0,West,15.0,-,N/A,Snow,Light Snow,280,2013-03-12 11:35:00
6:55 AM,32.0,24.8,75,29.90,10.0,WNW,12.7,-,N/A,Snow,Light Snow,290,2013-03-12 11:55:00
7:15 AM,32.0,24.8,75,29.90,7.0,WNW,17.3,23.0,N/A,Snow,Light Snow,300,2013-03-12 12:15:00
7:35 AM,30.2,23.0,75,29.91,4.0,WNW,17.3,26.5,N/A,Snow,Light Snow,300,2013-03-12 12:35:00
7:55 AM,28.4,24.8,86,29.91,2.5,WNW,17.3,24.2,N/A,Snow,Light Snow,300,2013-03-12 12:55:00
8:15 AM,28.4,19.4,69,29.92,1.0,WNW,23.0,31.1,N/A,Snow,Light Snow,300,2013-03-12 13:15:00
8:34 AM,26.6,19.4,74,29.93,1.5,WNW,17.3,27.6,N/A,Snow,Light Snow,300,2013-03-12 13:34:00
8:55 AM,26.6,19.4,74,29.95,5.0,WNW,19.6,27.6,N/A,Snow,Light Snow,300,2013-03-12 13:55:00
9:15 AM,26.6,17.6,69,29.96,7.0,WNW,18.4,26.5,N/A,,Overcast,300,2013-03-12 14:15:00
9:34 AM,24.8,15.8,69,29.97,4.0,WNW,21.9,27.6,N/A,,Haze,300,2013-03-12 14:34:00
9:55 AM,24.8,15.8,69,29.98,7.0,WNW,20.7,26.5,N/A,,Overcast,300,2013-03-12 14:55:00
10:15 AM,24.8,15.8,69,29.99,10.0,WNW,20.7,25.3,N/A,,Overcast,300,2013-03-12 15:15:00
10:35 AM,24.8,15.8,69,30.00,10.0,WNW,20.7,-,N/A,,Overcast,300,2013-03-12 15:35:00
10:55 AM,24.8,15.8,69,30.01,10.0,WNW,17.3,-,N/A,,Scattered Clouds,300,2013-03-12 15:55:00
11:14 AM,26.6,17.6,69,30.02,10.0,WNW,19.6,25.3,N/A,,Scattered Clouds,300,2013-03-12 16:14:00
11:35 AM,26.6,17.6,69,30.02,10.0,WNW,20.7,26.5,N/A,,Scattered Clouds,300,2013-03-12 16:35:00
11:55 AM,26.6,17.6,69,30.03,10.0,WNW,18.4,27.6,N/A,,Scattered Clouds,300,2013-03-12 16:55:00
12:15 PM,26.6,17.6,69,30.04,10.0,WNW,23.0,31.1,N/A,,Scattered Clouds,300,2013-03-12 17:15:00
12:34 PM,26.6,17.6,69,30.04,10.0,WNW,23.0,28.8,N/A,,Scattered Clouds,290,2013-03-12 17:34:00
12:55 PM,26.6,17.6,69,30.05,10.0,WNW,23.0,27.6,N/A,,Scattered Clouds,290,2013-03-12 17:55:00
1:15 PM,28.4,17.6,64,30.05,10.0,WNW,27.6,34.5,N/A,,Mostly Cloudy,300,2013-03-12 18:15:00
1:35 PM,26.6,17.6,69,30.06,10.0,WNW,20.7,32.2,N/A,,Overcast,300,2013-03-12 18:35:00
1:55 PM,28.4,17.6,64,30.06,10.0,WNW,26.5,32.2,N/A,,Overcast,290,2013-03-12 18:55:00
2:15 PM,28.4,17.6,64,30.06,7.0,WNW,24.2,33.4,N/A,,Overcast,300,2013-03-12 19:15:00
2:35 PM,28.4,17.6,64,30.06,10.0,WNW,24.2,36.8,N/A,,Overcast,300,2013-03-12 19:35:00
2:55 PM,28.4,17.6,64,30.06,10.0,WNW,28.8,35.7,N/A,,Overcast,290,2013-03-12 19:55:00
3:14 PM,28.4,17.6,64,30.06,10.0,WNW,27.6,35.7,N/A,,Overcast,300,2013-03-12 20:14:00
3:35 PM,28.4,17.6,64,30.07,10.0,WNW,23.0,36.8,N/A,,Mostly Cloudy,300,2013-03-12 20:35:00
3:55 PM,28.4,15.8,59,30.07,10.0,WNW,27.6,36.8,N/A,,Scattered Clouds,300,2013-03-12 20:55:00
4:15 PM,28.4,15.8,59,30.08,10.0,WNW,31.1,38.0,N/A,,Scattered Clouds,290,2013-03-12 21:15:00
4:35 PM,28.4,15.8,59,30.08,10.0,WNW,29.9,40.3,N/A,,Scattered Clouds,290,2013-03-12 21:35:00
4:54 PM,28.4,15.8,59,30.09,10.0,WNW,29.9,38.0,N/A,,Scattered Clouds,300,2013-03-12 21:54:00
5:15 PM,28.4,17.6,64,30.09,10.0,WNW,27.6,35.7,N/A,,Mostly Cloudy,300,2013-03-12 22:15:00
5:35 PM,28.4,15.8,59,30.10,10.0,WNW,33.4,38.0,N/A,,Overcast,290,2013-03-12 22:35:00
5:54 PM,28.4,15.8,59,30.10,10.0,WNW,31.1,39.1,N/A,,Mostly Cloudy,290,2013-03-12 22:54:00
6:15 PM,28.4,15.8,59,30.11,10.0,WNW,29.9,36.8,N/A,,Scattered Clouds,290,2013-03-12 23:15:00
6:35 PM,26.6,15.8,64,30.12,10.0,WNW,28.8,38.0,N/A,,Mostly Cloudy,300,2013-03-12 23:35:00
6:55 PM,26.6,15.8,64,30.13,10.0,WNW,26.5,35.7,N/A,,Mostly Cloudy,300,2013-03-12 23:55:00
7:15 PM,26.6,15.8,64,30.14,10.0,WNW,23.0,31.1,N/A,,Mostly Cloudy,300,2013-03-13 00:15:00
7:35 PM,26.6,15.8,64,30.15,10.0,NW,24.2,31.1,N/A,,Scattered Clouds,310,2013-03-13 00:35:00
7:55 PM,26.6,15.8,64,30.16,10.0,WNW,23.0,29.9,N/A,,Clear,300,2013-03-13 00:55:00
8:15 PM,26.6,15.8,64,30.17,10.0,WNW,21.9,27.6,N/A,,Clear,300,2013-03-13 01:15:00
8:35 PM,24.8,15.8,69,30.18,10.0,NW,23.0,27.6,N/A,,Clear,310,2013-03-13 01:35:00
8:55 PM,24.8,15.8,69,30.19,10.0,NW,25.3,33.4,N/A,,Clear,310,2013-03-13 01:55:00
9:15 PM,24.8,15.8,69,30.19,10.0,WNW,23.0,27.6,N/A,,Clear,300,2013-03-13 02:15:00
9:34 PM,24.8,15.8,69,30.20,10.0,WNW,19.6,25.3,N/A,,Clear,300,2013-03-13 02:34:00
9:55 PM,24.8,15.8,69,30.21,10.0,NW,21.9,28.8,N/A,,Clear,310,2013-03-13 02:55:00
10:15 PM,23.0,15.8,74,30.21,10.0,NW,24.2,28.8,N/A,,Clear,310,2013-03-13 03:15:00
10:35 PM,23.0,15.8,74,30.22,10.0,NW,21.9,26.5,N/A,,Clear,310,2013-03-13 03:35:00
10:54 PM,23.0,15.8,74,30.22,10.0,NW,19.6,29.9,N/A,,Clear,310,2013-03-13 03:54:00
11:15 PM,23.0,15.8,74,30.23,10.0,NW,20.7,29.9,N/A,,Clear,310,2013-03-13 04:15:00
11:35 PM,21.2,15.8,80,30.24,10.0,NW,21.9,26.5,N/A,,Clear,310,2013-03-13 04:35:00
11:55 PM,21.2,15.8,80,30.25,10.0,NW,19.6,-,N/A,,Clear,310,2013-03-13 04:55:00